User: anonymous   Login
Location: Cutler
(25.6150°N, 80.3110°W)
Time: 18:33:31
(UTC-04:00)
Language:

Cosmos 2360 Rocket - Orbit

View from above orbital plane
View from above orbital plane
View from above satellite
View from above satellite

Ground track
Ground track

The orbit data is extracted from the following two-line orbital elements,

1 25407U 98045B   17142.92730881 -.00000251 +00000-0 -10332-3 0  9999
2 25407 071.0111 094.5142 0009962 250.6880 109.3166 14.15758993972333
Epoch (UTC): 22 May 2017 22:15:19
Eccentricity: 0.0009962
inclination: 71.0111°
perigee height: 832 km
apogee height: 847 km
right ascension of ascending node: 94.5142°
argument of perigee: 250.6880°
revolutions per day: 14.15758993
mean anomaly at epoch: 109.3166°
orbit number at epoch: 97233

The dashed part of the orbit path shows where the satellite is in the earth's shadow,  

DLR